Regional Weather Roundup
Issued by NWS

Home | Current Version | Previous Version | Graphics & Text | Print | Product List | Glossary On
Versions: 1 2 3 4 5 6 7 8 9 10 11 12 13 14 15 16 17 18 19 20 21 22 23 24 25 26 27 28 29 30 31 32 33 34 35 36 37 38 39 40 41 42 43 44 45 46 47 48 49 50
000
ASUS43 KOAX 260710
RWRNE

WEATHER ROUNDUP FOR NEBRASKA
NATIONAL WEATHER SERVICE OMAHA NE
200 AM CDT SUN APR 26 2015

NOTES: SATELLITE DATA IS BEING USED TO AUGMENT CLOUD COVER ABOVE
       12000 FEET.
       "FAIR" INDICATES FEW OR NO CLOUDS BELOW 12,000 FEET WITH NO
       SIGNIFICANT WEATHER AND/OR OBSTRUCTIONS TO VISIBILITY.

  * THESE STATIONS DO NOT REPORT WEATHER SUCH AS RAIN...SNOW OR FOG.

NEZ001>004-019>022-054>056-260800-
NEBRASKA PANHANDLE

CITY           SKY/WX    TMP DP  RH WIND       PRES   REMARKS
SCOTTSBLUFF    LGT RAIN  50  47  89 E14       29.82F
ALLIANCE       CLOUDY    50  47  89 S13       29.84R
CHADRON        FOG       49  48  97 NE7       29.86R VSB 1/2
KIMBALL        LGT RAIN  46  44  96 E14       29.81R
SIDNEY         RAIN      47  45  93 E14       29.85F FOG
$$

NEZ057>060-069>072-079>082-260800-
SOUTHWEST NEBRASKA

CITY           SKY/WX    TMP DP  RH WIND       PRES   REMARKS
IMPERIAL       CLOUDY    47  44  90 E12       29.87S FOG
LEXINGTON      CLOUDY    47  44  87 E15       29.89S
MCCOOK         CLOUDY    47  45  93 E14       29.86R FOG
OGALLALA       CLOUDY    48  46  91 S3        29.90R FOG
$$

NEZ005>010-023>029-035>040-094-260800-
NORTH CENTRAL NEBRASKA

CITY           SKY/WX    TMP DP  RH WIND       PRES   REMARKS
VALENTINE      CLOUDY    51  44  77 SE7       29.90R
AINSWORTH      MOCLDY    46  44  91 SE12      29.90R
BROKEN BOW     CLOUDY    48  43  82 E10       29.89S
O`NEILL        CLOUDY    50  44  79 E6        29.93R
ORD            CLOUDY    47  40  76 E12       29.90R
THEDFORD       CLOUDY    49  44  82 SE13      29.90R
$$

NEZ041-046>049-061>064-073>077-083>087-260800-
SOUTH CENTRAL NEBRASKA

CITY           SKY/WX    TMP DP  RH WIND       PRES   REMARKS
GRAND ISLAND   CLOUDY    47  44  90 E10       29.92R
AURORA         CLOUDY    47  46  96 E10       29.91R
HASTINGS       CLOUDY    47  43  86 E9        29.90R
HEBRON         CLOUDY    47  45  91 E10       29.88S FOG
HOLDREGE       CLOUDY    46  44  93 E13       29.89R FOG
KEARNEY *      CLOUDY    46  43  87 E17       29.90S
YORK           CLOUDY    48  45  87 E9        29.91S
$$

NEZ011>018-030>034-042>045-260800-
NORTHEAST NEBRASKA

CITY           SKY/WX    TMP DP  RH WIND       PRES   REMARKS
NORFOLK        PTCLDY    42  38  85 CALM      29.94R
ALBION         CLEAR     43  39  85 E7        29.93S
BLAIR          CLOUDY    47  41  79 NE7       29.93R
COLUMBUS *     CLOUDY    48  39  71 E9        29.94R
FREMONT        CLOUDY    49  43  78 E6        29.93S
TEKAMAH        CLOUDY    47  42  83 NE7       29.94R
WAYNE          CLOUDY    47  40  76 E5        29.95S
$$

NEZ050>053-065>068-078-088>093-260800-
SOUTHEAST NEBRASKA

CITY           SKY/WX    TMP DP  RH WIND       PRES   REMARKS
LINCOLN        CLOUDY    49  44  83 E12       29.92S
OMAHA EPPLEY   PTCLDY    47  41  80 NE6       29.93R
BEATRICE       CLOUDY    47  46  96 NE8       29.89S FOG
FALLS CITY     CLOUDY    48  45  89 E13       29.88R FOG
NEBRASKA CITY  CLOUDY    48  44  85 NE9       29.90R
PLATTSMOUTH    CLOUDY    47  42  81 NE9       29.91S
$$

NEZ044-045-051>053-067-260800-
OMAHA AREA

CITY           SKY/WX    TMP DP  RH WIND       PRES   REMARKS
OMAHA EPPLEY   PTCLDY    47  41  80 NE6       29.93R
BLAIR          CLOUDY    47  41  79 NE7       29.93R
FREMONT        CLOUDY    49  43  78 E6        29.93S
MILLARD        MOCLDY    49  42  74 CALM      29.92S
OFFUTT AFB     PTCLDY    46  41  81 NE6       29.92R
PLATTSMOUTH    CLOUDY    47  42  81 NE9       29.91S
WAHOO          CLOUDY    49  43  80 NE9       29.92S
$$



USA.gov is the U.S. government's official web portal to all federal, state and local government web resources and services.